sat.trackr.live / text

‹ back to catalog

STARLINK-31692

NORAD 59577 · 2024-076P

PAYLOAD ACTIVE UNKNOWN

§ Identity

Operator
Country
US
Launch date
2024-04-23
Launch site
AFETR
Launch vehicle
Mass (kg)
RCS (m²)

Purposes: comms

External: N2YO · Heavens-Above · Gunter

§ Orbital elements

Epoch: 2026-09-21T12:34:25.670208Z

Period
93.22 min
Inclination
42.9990°
Eccentricity
0.0016440
Mean motion
15.44657233 rev/d
Perigee alt
421.2 km
Apogee alt
443.6 km
Semi-major
6,810.5 km
B*
1.0285e-3
RAAN
332.5448°
Arg perigee
24.8115°
Mean anomaly
335.3531°
Rev number
13,657

§ Raw data

STARLINK-316921 59577U 24076P   26264.52390822  .00049317  00000+0  10285-2 0  99942 59577  42.9990 332.5448 0016440  24.8115 335.3531 15.44657233136578

JSON: /api/v1/satellites/59577 · /tle

For live sub-satellite position, see the globe view (requires WebGL).

§ Visibility from observer

Set your observer location to see the next 7 days of passes ≥ 10°. The values pass through the URL so the page stays shareable.

No JS? Fill the form by hand. The geolocation button needs JavaScript.